When you browse on this site, cookies collect data to enhance your experience and personalize the content and advertising you see.
Visit our Privacy Policy to learn more. By continuing to use the site, you agree to this use of cookies and data.
  • în România
  • Lista ţărilor
  • Pe 7 zile
  • Temperatura apei
  • Hartă satelitară
  • Meteo pe hartă
  • Widget-uri
  • user-avatar
    Intrare

    Meteo pe oră la Konstantyna

    Astăzi, 24 Iunie, Luni

    Timp Temperatura Precipitaţii Vânt Presiune Umiditate
    00:00 +30°C° 0 mm 2 m/s 710 mmHg 18%
    01:00 +30°C° 0 mm 2 m/s 710 mmHg 17%
    02:00 +30°C° 0 mm 2 m/s 710 mmHg 16%
    03:00 +29°C° 0 mm 2 m/s 710 mmHg 15%
    04:00 +30°C° 0 mm 2 m/s 710 mmHg 16%
    05:00 +31°C° 0 mm 2 m/s 710 mmHg 17%
    06:00 +32°C° 0 mm 2 m/s 711 mmHg 17%
    07:00 +36°C° 0 mm 3 m/s 711 mmHg 15%
    08:00 +40°C° 0 mm 4 m/s 712 mmHg 12%
    09:00 +42°C° 0 mm 5 m/s 712 mmHg 9%
    10:00 +43°C° 0 mm 5 m/s 712 mmHg 8%
    11:00 +45°C° 0 mm 6 m/s 712 mmHg 8%
    12:00 +46°C° 0 mm 6 m/s 712 mmHg 7%
    13:00 +46°C° 0 mm 6 m/s 712 mmHg 7%
    14:00 +46°C° 0 mm 6 m/s 712 mmHg 7%
    15:00 +46°C° 0 mm 6 m/s 712 mmHg 7%
    16:00 +43°C° 0 mm 5 m/s 712 mmHg 8%
    17:00 +42°C° 0 mm 4 m/s 712 mmHg 9%
    18:00 +40°C° 0 mm 4 m/s 712 mmHg 11%
    19:00 +37°C° 0 mm 3 m/s 712 mmHg 12%
    20:00 +35°C° 0 mm 3 m/s 712 mmHg 13%
    21:00 +32°C° 0 mm 2 m/s 712 mmHg 15%
    22:00 +32°C° 0 mm 2 m/s 711 mmHg 15%
    23:00 +31°C° 0 mm 2 m/s 711 mmHg 14%

    Mâine, 25 Iunie, Marţi

    Timp Temperatura Precipitaţii Vânt Presiune Umiditate
    00:00 +30°C° 0 mm 2 m/s 711 mmHg 14%
    01:00 +30°C° 0 mm 2 m/s 711 mmHg 14%
    02:00 +30°C° 0 mm 2 m/s 711 mmHg 15%
    03:00 +29°C° 0 mm 2 m/s 710 mmHg 15%
    04:00 +31°C° 0 mm 1 m/s 711 mmHg 15%
    05:00 +32°C° 0 mm 1 m/s 711 mmHg 16%
    06:00 +33°C° 0 mm 1 m/s 712 mmHg 16%
    07:00 +37°C° 0 mm 2 m/s 713 mmHg 14%
    08:00 +39°C° 0 mm 3 m/s 713 mmHg 11%
    09:00 +42°C° 0 mm 4 m/s 714 mmHg 8%
    10:00 +43°C° 0 mm 3 m/s 714 mmHg 8%
    11:00 +44°C° 0 mm 3 m/s 714 mmHg 7%
    12:00 +43°C° 0 mm 2 m/s 714 mmHg 6%
    13:00 +44°C° 0 mm 3 m/s 714 mmHg 7%
    14:00 +44°C° 0 mm 3 m/s 713 mmHg 8%
    15:00 +44°C° 0 mm 4 m/s 713 mmHg 9%
    16:00 +42°C° 0 mm 4 m/s 713 mmHg 13%
    17:00 +39°C° 0 mm 3 m/s 713 mmHg 16%
    18:00 +37°C° 0 mm 3 m/s 713 mmHg 19%
    19:00 +35°C° 0 mm 2 m/s 713 mmHg 21%
    20:00 +32°C° 0 mm 2 m/s 713 mmHg 23%
    21:00 +31°C° 0 mm 1 m/s 713 mmHg 25%
    22:00 +30°C° 0 mm 1 m/s 713 mmHg 25%
    23:00 +30°C° 0 mm 1 m/s 713 mmHg 26%

    Poimâine, 26 Iunie, Miercuri

    Timp Temperatura Precipitaţii Vânt Presiune Umiditate
    00:00 +27°C° 0 mm 0 m/s 713 mmHg 26%
    01:00 +29°C° 0 mm 1 m/s 712 mmHg 27%
    02:00 +29°C° 0 mm 1 m/s 712 mmHg 27%
    03:00 +28°C° 0 mm 1 m/s 712 mmHg 28%
    04:00 +30°C° 0 mm 1 m/s 712 mmHg 27%
    05:00 +31°C° 0 mm 1 m/s 713 mmHg 26%
    06:00 +33°C° 0 mm 1 m/s 713 mmHg 25%
    07:00 +35°C° 0 mm 1 m/s 713 mmHg 21%
    08:00 +37°C° 0 mm 1 m/s 714 mmHg 18%
    09:00 +40°C° 0 mm 1 m/s 714 mmHg 14%
    10:00 +41°C° 0 mm 2 m/s 714 mmHg 12%
    11:00 +43°C° 0 mm 3 m/s 714 mmHg 10%
    12:00 +44°C° 0 mm 4 m/s 714 mmHg 8%
    13:00 +45°C° 0 mm 5 m/s 714 mmHg 8%
    14:00 +45°C° 0 mm 5 m/s 713 mmHg 8%
    15:00 +45°C° 0 mm 6 m/s 713 mmHg 9%
    16:00 +42°C° 0 mm 6 m/s 713 mmHg 13%
    17:00 +40°C° 0 mm 5 m/s 713 mmHg 16%
    18:00 +37°C° 0 mm 4 m/s 712 mmHg 20%
    19:00 +35°C° 0 mm 3 m/s 712 mmHg 23%
    20:00 +32°C° 0 mm 2 m/s 712 mmHg 26%
    21:00 +30°C° 0 mm 1 m/s 712 mmHg 29%
    22:00 +29°C° 0 mm 1 m/s 712 mmHg 28%
    23:00 +28°C° 0 mm 1 m/s 712 mmHg 28%

    27 Iunie, Joi

    Timp Temperatura Precipitaţii Vânt Presiune Umiditate
    00:00 +28°C° 0 mm 1 m/s 712 mmHg 27%
    01:00 +25°C° 0 mm 0 m/s 711 mmHg 27%
    02:00 +25°C° 0 mm 0 m/s 711 mmHg 28%
    03:00 +24°C° 0 mm 0 m/s 711 mmHg 28%
    04:00 +26°C° 0 mm 0 m/s 711 mmHg 26%
    05:00 +29°C° 0 mm 1 m/s 711 mmHg 24%
    06:00 +31°C° 0 mm 1 m/s 712 mmHg 22%
    07:00 +32°C° 0 mm 1 m/s 712 mmHg 20%
    08:00 +35°C° 0 mm 2 m/s 712 mmHg 18%
    09:00 +37°C° 0 mm 3 m/s 713 mmHg 16%
    10:00 +38°C° 0 mm 4 m/s 713 mmHg 16%
    11:00 +40°C° 0 mm 4 m/s 712 mmHg 16%
    12:00 +40°C° 0 mm 5 m/s 712 mmHg 16%
    13:00 +40°C° 0 mm 6 m/s 712 mmHg 17%
    14:00 +39°C° 0 mm 6 m/s 711 mmHg 19%
    15:00 +39°C° 0 mm 6 m/s 711 mmHg 20%
    16:00 +36°C° 0 mm 5 m/s 711 mmHg 24%
    17:00 +34°C° 0 mm 5 m/s 711 mmHg 28%
    18:00 +33°C° 0 mm 4 m/s 710 mmHg 32%
    19:00 +30°C° 0 mm 3 m/s 711 mmHg 37%
    20:00 +28°C° 0 mm 2 m/s 711 mmHg 43%
    21:00 +26°C° 0 mm 1 m/s 711 mmHg 48%
    22:00 +25°C° 0 mm 1 m/s 711 mmHg 49%
    23:00 +25°C° 0 mm 1 m/s 710 mmHg 51%

    28 Iunie, Vineri

    Timp Temperatura Precipitaţii Vânt Presiune Umiditate
    00:00 +22°C° 0 mm 0 m/s 710 mmHg 52%
    01:00 +22°C° 0 mm 0 m/s 710 mmHg 52%
    02:00 +22°C° 0 mm 0 m/s 710 mmHg 52%
    03:00 +21°C° 0 mm 0 m/s 709 mmHg 52%
    04:00 +22°C° 0 mm 0 m/s 709 mmHg 49%
    05:00 +24°C° 0 mm 0 m/s 710 mmHg 46%
    06:00 +25°C° 0 mm 0 m/s 710 mmHg 43%
    07:00 +29°C° 0 mm 1 m/s 710 mmHg 39%
    08:00 +31°C° 0 mm 1 m/s 711 mmHg 34%
    09:00 +33°C° 0 mm 1 m/s 711 mmHg 30%
    10:00 +35°C° 0 mm 2 m/s 711 mmHg 28%
    11:00 +36°C° 0 mm 3 m/s 711 mmHg 26%
    12:00 +37°C° 0 mm 3 m/s 711 mmHg 24%
    13:00 +37°C° 0 mm 4 m/s 710 mmHg 24%
    14:00 +37°C° 0 mm 5 m/s 710 mmHg 24%
    15:00 +38°C° 0 mm 6 m/s 710 mmHg 24%
    16:00 +35°C° 0 mm 6 m/s 710 mmHg 27%
    17:00 +33°C° 0 mm 5 m/s 709 mmHg 30%
    18:00 +30°C° 0 mm 4 m/s 709 mmHg 33%
    19:00 +29°C° 0 mm 3 m/s 709 mmHg 39%
    20:00 +27°C° 0 mm 2 m/s 709 mmHg 44%
    21:00 +25°C° 0 mm 1 m/s 709 mmHg 50%
    22:00 +24°C° 0 mm 1 m/s 709 mmHg 51%
    23:00 +24°C° 0 mm 1 m/s 709 mmHg 53%

    29 Iunie, Sâmbătă

    Timp Temperatura Precipitaţii Vânt Presiune Umiditate
    00:00 +21°C° 0 mm 0 m/s 709 mmHg 54%
    01:00 +21°C° 0 mm 0 m/s 708 mmHg 54%
    02:00 +23°C° 0 mm 1 m/s 708 mmHg 54%
    03:00 +23°C° 0 mm 1 m/s 708 mmHg 53%
    04:00 +24°C° 0 mm 1 m/s 708 mmHg 51%
    05:00 +25°C° 0 mm 1 m/s 709 mmHg 48%
    06:00 +27°C° 0 mm 1 m/s 709 mmHg 45%
    07:00 +29°C° 0 mm 1 m/s 710 mmHg 39%
    08:00 +31°C° 0 mm 1 m/s 710 mmHg 33%
    09:00 +31°C° 0 mm 0 m/s 711 mmHg 27%
    10:00 +35°C° 0 mm 1 m/s 711 mmHg 23%
    11:00 +36°C° 0 mm 1 m/s 711 mmHg 19%
    12:00 +38°C° 0 mm 2 m/s 711 mmHg 16%
    13:00 +38°C° 0 mm 3 m/s 710 mmHg 17%
    14:00 +38°C° 0 mm 4 m/s 710 mmHg 18%
    15:00 +39°C° 0 mm 6 m/s 709 mmHg 19%
    16:00 +36°C° 0 mm 5 m/s 709 mmHg 23%
    17:00 +35°C° 0 mm 5 m/s 709 mmHg 27%
    18:00 +33°C° 0 mm 4 m/s 709 mmHg 31%
    19:00 +30°C° 0 mm 3 m/s 709 mmHg 36%
    20:00 +28°C° 0 mm 2 m/s 710 mmHg 41%
    21:00 +26°C° 0 mm 1 m/s 710 mmHg 47%
    22:00 +26°C° 0 mm 1 m/s 710 mmHg 47%
    23:00 +25°C° 0 mm 1 m/s 710 mmHg 47%
    Arată mai mult